Retour au catalogue

STARLINK-34260

ActifCommunicationsVLEO
NORAD 64334·PAYLOAD·🇺🇸 United States

Lancé Jun 10, 2025 depuis Cape Canaveral Space Force Station

Loading…

Prochains Passages (prochaines 24 heures)

TLE

FraisSource: CelesTrak SupGP

Époque: Sep 14, 2026, 22:54 UTC

1 64334C 25124T   26257.95465278 -.00024673  00000+0 -89381-3 0  2574
2 64334  42.9993 133.0702 0001231 271.6045  80.0350 15.27585842    10

Suivez STARLINK-34260 en temps réel avec AllMySat

Download on the App Store